GW5832 Weather Reports


Display with metric or nautical units.
time (UTC)temp
F
wind
direction
speed
MPH
gust
MPH
rain 1hr
in
rain 24hr
in
rain mn
in
humidity
%
barometer
mb
20260504181003 81 300 0.0 2.0 0.00 0.00 0.00 39 1016.7
20260504180507 81 48 0.0 2.0 0.00 0.00 0.00 38 1016.8
20260504180023 81 163 0.0 2.0 0.00 0.00 0.00 39 1017.0
20260504175504 80 319 0.0 1.0 0.00 0.00 0.00 39 1017.1
20260504175006 80 339 0.0 2.0 0.00 0.00 0.00 39 1017.2
20260504174520 79 40 0.0 2.0 0.00 0.00 0.00 40 1017.2
20260504174003 79 352 0.0 0.0 0.00 0.00 0.00 39 1017.3
20260504173503 79 227 0.0 4.0 0.00 0.00 0.00 44 1017.3
20260504173011 78 311 0.0 4.0 0.00 0.00 0.00 42 1017.4
20260504172502 78 132 0.0 3.0 0.00 0.00 0.00 43 1017.4
20260504172002 78 36 0.0 3.0 0.00 0.00 0.00 43 1017.4
20260504171513 78 144 0.0 2.0 0.00 0.00 0.00 39 1017.5
20260504171006 77 164 0.0 2.0 0.00 0.00 0.00 40 1017.6
20260504170506 77 148 0.0 2.0 0.00 0.00 0.00 46 1017.6
20260504151005 61 86 0.0 0.0 0.00 0.00 0.00 63 1018.6
20260504150504 60 259 0.0 0.0 0.00 0.00 0.00 65 1018.5
20260504141017 53 330 0.0 2.0 0.00 0.00 0.00 84 1019.1
20260504140504 52 104 0.0 2.0 0.00 0.00 0.00 86 1019.0
20260504130511 48 225 0.0 0.0 0.00 0.00 0.00 89 1018.9
20260504110511 47 232 0.0 0.0 0.00 0.00 0.00 85 1018.5
20260504100506 47 232 0.0 0.0 0.00 0.00 0.00 84 1018.2
20260504082003 48 233 0.0 0.0 0.00 0.00 0.00 80 1018.1
20260504081512 49 232 0.0 0.0 0.00 0.00 0.00 80 1018.2
20260504081009 49 232 0.0 0.0 0.00 0.00 0.00 80 1018.2
20260504080505 49 233 0.0 0.0 0.00 0.00 0.00 80 1018.2
20260504050508 52 233 0.0 0.0 0.00 0.00 0.00 72 1018.9
20260504050011 52 233 0.0 0.0 0.00 0.00 0.00 72 1019.0
20260504045503 53 233 0.0 0.0 0.00 0.00 0.00 71 1019.1
20260504045004 53 232 0.0 0.0 0.00 0.00 0.00 71 1019.0
20260504044510 53 233 0.0 0.0 0.00 0.00 0.00 70 1018.9
20260504044007 53 233 0.0 0.0 0.00 0.00 0.00 69 1018.9
20260504043507 53 233 0.0 0.0 0.00 0.00 0.00 69 1018.8
20260504043008 53 232 0.0 0.0 0.00 0.00 0.00 68 1018.9
20260504042505 53 233 0.0 0.0 0.00 0.00 0.00 68 1019.1
20260504042007 53 233 0.0 0.0 0.00 0.00 0.00 68 1019.1
20260504041525 54 232 0.0 0.0 0.00 0.00 0.00 67 1019.2
20260504041003 54 233 0.0 0.0 0.00 0.00 0.00 67 1019.1
20260504040503 54 232 0.0 0.0 0.00 0.00 0.00 67 1019.1
20260504040027 54 232 0.0 0.0 0.00 0.00 0.00 66 1019.1
20260504035506 54 232 0.0 0.0 0.00 0.00 0.00 66 1019.2
20260504035008 54 233 0.0 0.0 0.00 0.00 0.00 66 1019.2
20260504034514 55 232 0.0 0.0 0.00 0.00 0.00 65 1019.2
20260504034004 55 233 0.0 0.0 0.00 0.00 0.00 65 1019.3
20260504033504 55 233 0.0 0.0 0.00 0.00 0.00 65 1019.2
20260504033019 55 233 0.0 0.0 0.00 0.00 0.00 64 1019.1
20260504032507 55 232 0.0 0.0 0.00 0.00 0.00 64 1019.2
20260504032012 55 233 0.0 0.0 0.00 0.00 0.00 63 1019.1
20260504031514 56 233 0.0 0.0 0.00 0.00 0.00 63 1019.1
20260504031005 56 233 0.0 0.0 0.00 0.00 0.00 62 1019.1
20260504030507 56 232 0.0 0.0 0.00 0.00 0.00 61 1019.1
20260504030010 56 233 0.0 0.0 0.00 0.00 0.00 61 1019.1
20260504025504 56 233 0.0 0.0 0.00 0.00 0.00 61 1019.1
20260504025008 56 233 0.0 0.0 0.00 0.00 0.00 60 1019.0
20260504024513 57 232 0.0 0.0 0.00 0.00 0.00 60 1019.0
20260504024008 57 233 0.0 0.0 0.00 0.00 0.00 59 1018.9
20260504023505 57 233 0.0 0.0 0.00 0.00 0.00 59 1018.8
20260504023016 57 232 0.0 0.0 0.00 0.00 0.00 59 1018.8
20260504022503 57 232 0.0 0.0 0.00 0.00 0.00 58 1018.9
20260504022007 57 232 0.0 0.0 0.00 0.00 0.00 57 1018.8
20260504021524 58 232 0.0 0.0 0.00 0.00 0.00 57 1018.7
20260504021008 58 233 0.0 0.0 0.00 0.00 0.00 56 1018.6
20260504020503 58 232 0.0 0.0 0.00 0.00 0.00 56 1018.5
20260504020020 58 233 0.0 0.0 0.00 0.00 0.00 54 1018.5
20260504015511 59 232 0.0 0.0 0.00 0.00 0.00 55 1018.5
20260504015012 59 233 0.0 0.0 0.00 0.00 0.00 54 1018.4
20260504014524 59 233 0.0 0.0 0.00 0.00 0.00 54 1018.3
20260504014003 59 233 0.0 0.0 0.00 0.00 0.00 52 1018.3
20260504013503 60 233 0.0 0.0 0.00 0.00 0.00 52 1018.2
20260504013014 60 233 0.0 0.0 0.00 0.00 0.00 51 1018.3
20260504012507 60 233 0.0 0.0 0.00 0.00 0.00 51 1018.3
20260504012008 60 233 0.0 0.0 0.00 0.00 0.00 49 1018.1
20260504011520 61 233 0.0 0.0 0.00 0.00 0.00 48 1018.0
20260504011007 61 232 0.0 0.0 0.00 0.00 0.00 48 1018.0
20260504010507 61 232 0.0 0.0 0.00 0.00 0.00 47 1017.9
20260504010022 62 233 0.0 0.0 0.00 0.00 0.00 45 1017.9
20260504005505 62 233 0.0 0.0 0.00 0.00 0.00 45 1017.9
20260504005006 62 233 0.0 0.0 0.00 0.00 0.00 44 1017.9
20260504004539 63 233 0.0 0.0 0.00 0.00 0.00 43 1017.9
20260504004009 63 233 0.0 0.0 0.00 0.00 0.00 42 1017.8
20260504003505 63 232 0.0 0.0 0.00 0.00 0.00 42 1017.8
20260504003024 64 233 0.0 0.0 0.00 0.00 0.00 40 1017.7
20260504002503 64 233 0.0 0.0 0.00 0.00 0.00 40 1017.7
20260504002006 64 233 0.0 0.0 0.00 0.00 0.00 39 1017.7
20260504001520 65 233 0.0 0.0 0.00 0.00 0.00 38 1017.7
20260504001007 65 233 0.0 0.0 0.00 0.00 0.00 39 1017.8
20260504000505 65 242 0.0 0.0 0.00 0.00 0.00 38 1017.7
20260504000020 65 242 0.0 0.0 0.00 0.00 0.00 37 1017.8
20260503235506 66 240 0.0 0.0 0.00 0.00 0.00 38 1017.7
20260503235005 66 241 0.0 0.0 0.00 0.00 0.00 37 1017.6
20260503234517 66 206 0.0 0.0 0.00 0.00 0.00 39 1017.6
20260503234003 66 265 0.0 0.0 0.00 0.00 0.00 41 1017.6
20260503233502 66 176 0.0 2.0 0.00 0.00 0.00 41 1017.6
20260503233012 66 43 0.0 2.0 0.00 0.00 0.00 41 1017.6
20260503232507 67 117 0.0 2.0 0.00 0.00 0.00 41 1017.6
20260503232005 67 116 0.0 2.0 0.00 0.00 0.00 40 1017.6
20260503231509 67 278 0.0 2.0 0.00 0.00 0.00 40 1017.6
20260503231003 67 94 0.0 0.0 0.00 0.00 0.00 42 1017.6
20260503230508 67 217 0.0 1.0 0.00 0.00 0.00 41 1017.6
20260503230023 67 215 0.0 1.0 0.00 0.00 0.00 41 1017.6
20260503225503 67 243 0.0 0.0 0.00 0.00 0.00 41 1017.7
20260503225007 68 288 0.0 2.0 0.00 0.00 0.00 39 1017.7
20260503224524 68 130 0.0 1.0 0.00 0.00 0.00 39 1017.8
20260503224003 68 196 0.0 2.0 0.00 0.00 0.00 39 1017.7
20260503223503 68 36 0.0 2.0 0.00 0.00 0.00 39 1017.8
20260503223012 68 232 0.0 2.0 0.00 0.00 0.00 40 1017.6
20260503222503 68 5 0.0 0.0 0.00 0.00 0.00 42 1017.6
20260503222004 68 298 0.0 0.0 0.00 0.00 0.00 39 1017.6
20260503221511 68 11 0.0 0.0 0.00 0.00 0.00 39 1017.7
20260503221006 68 304 0.0 0.0 0.00 0.00 0.00 38 1017.7
20260503220506 68 252 0.0 0.0 0.00 0.00 0.00 40 1017.7
20260503220017 68 219 0.0 0.0 0.00 0.00 0.00 38 1017.7
20260503215506 68 333 0.0 2.0 0.00 0.00 0.00 37 1017.8
20260503215005 69 124 0.0 2.0 0.00 0.00 0.00 37 1017.9
20260503214510 69 334 0.0 2.0 0.00 0.00 0.00 38 1017.8
20260503214003 69 169 0.0 3.0 0.00 0.00 0.00 37 1017.7
20260503213508 69 350 1.0 3.0 0.00 0.00 0.00 37 1017.8
20260503213026 69 21 0.0 2.0 0.00 0.00 0.00 38 1017.9
20260503212503 69 192 0.0 1.0 0.00 0.00 0.00 38 1017.9
20260503212005 69 349 0.0 2.0 0.00 0.00 0.00 41 1018.0
20260503211508 69 312 0.0 4.0 0.00 0.00 0.00 39 1018.1
20260503211002 69 202 0.0 4.0 0.00 0.00 0.00 38 1018.0
20260503210506 69 207 0.0 4.0 0.00 0.00 0.00 38 1018.0
20260503210016 69 360 0.0 2.0 0.00 0.00 0.00 38 1018.0
20260503205510 69 192 0.0 2.0 0.00 0.00 0.00 37 1018.0
20260503205004 69 273 0.0 3.0 0.00 0.00 0.00 38 1018.1
20260503204526 69 168 0.0 3.0 0.00 0.00 0.00 38 1018.2
20260503204012 69 33 0.0 2.0 0.00 0.00 0.00 40 1018.2
20260503203503 69 271 0.0 0.0 0.00 0.00 0.00 38 1018.3
20260503203016 69 281 0.0 0.0 0.00 0.00 0.00 36 1018.4
20260503202509 69 292 0.0 2.0 0.00 0.00 0.00 37 1018.4
20260503202010 69 162 0.0 2.0 0.00 0.00 0.00 35 1018.5
20260503201514 69 242 0.0 2.0 0.00 0.00 0.00 37 1018.7
20260503201006 69 239 0.0 3.0 0.00 0.00 0.00 40 1018.7
20260503200503 69 329 0.0 3.0 0.00 0.00 0.00 40 1018.7
20260503200014 69 5 0.0 3.0 0.00 0.00 0.00 39 1018.8
20260503195506 70 93 0.0 3.0 0.00 0.00 0.00 39 1018.9
20260503195006 70 281 0.0 3.0 0.00 0.00 0.00 37 1019.1
20260503194518 70 248 0.0 3.0 0.00 0.00 0.00 38 1019.2
20260503194003 70 259 1.0 3.0 0.00 0.00 0.00 36 1019.2
20260503193510 70 10 0.0 3.0 0.00 0.00 0.00 36 1019.4
20260503193035 70 68 0.0 3.0 0.00 0.00 0.00 37 1019.5
20260503192510 70 246 0.0 3.0 0.00 0.00 0.00 36 1019.6
20260503192008 71 157 0.0 3.0 0.00 0.00 0.00 35 1019.7
20260503191520 71 327 0.0 2.0 0.00 0.00 0.00 36 1019.8
20260503191010 71 147 0.0 2.0 0.00 0.00 0.00 35 1019.8
20260503190503 71 265 0.0 3.0 0.00 0.00 0.00 39 1019.9
20260503190017 71 270 0.0 3.0 0.00 0.00 0.00 39 1020.0
20260503185503 72 167 0.0 3.0 0.00 0.00 0.00 35 1020.0
20260503185003 72 5 0.0 3.0 0.00 0.00 0.00 35 1020.1
20260503184523 72 57 0.0 3.0 0.00 0.00 0.00 36 1020.1
20260503184009 72 298 0.0 3.0 0.00 0.00 0.00 36 1020.2
20260503183507 72 150 0.0 3.0 0.00 0.00 0.00 38 1020.3
20260503183012 72 243 0.0 2.0 0.00 0.00 0.00 35 1020.3
20260503182507 72 97 0.0 3.0 0.00 0.00 0.00 35 1020.3
20260503182007 72 115 0.0 3.0 0.00 0.00 0.00 38 1020.4
20260503181524 72 176 0.0 3.0 0.00 0.00 0.00 36 1020.5